Hourly Data Report for September 08, 2017

All times are specified in Local Standard Time (LST). Add 1 hour to adjust for Daylight Saving Time where and when it is observed.

NORTH CAPE
PRINCE EDWARD ISLAND

47°03'29.000" N
63°59'55.000" W
7.60 m
8300516
71987
WNE

Download Data

Hourly Data (September 2017)
Hourly Data Report for September 8, 2017
Temp Definition
°C
Dew Point Temp Definition
°C
Rel Hum Definition
%
Wind Dir Definition
10's deg

Wind Spd Definition
km/h
Visibility Definition
km
Stn Press Definition
kPa
Hmdx Definition


Wind Chill Definition


Weather Definition


TIME
00:00 14.7 12.6 88 21 23   100.68     LegendNANA
01:00 14.7 12.8 89 22 28   100.66     LegendNANA
02:00 14.4 12.8 90 22 32   100.68     LegendNANA
03:00 14.1 12.7 91 22 30   100.71     LegendNANA
04:00 14.7 12.9 89 23 38   100.75     LegendNANA
05:00 14.5 12.7 89 23 34   100.79     LegendNANA
06:00 14.1 12.7 91 22 26   100.83     LegendNANA
07:00 14.4 12.5 88 22 28   100.91     LegendNANA
08:00 14.8 12.5 86 24 39   101.02     LegendNANA
09:00 15.2 12.5 84 24 36   101.09     LegendNANA
10:00 15.6 12.5 82 24 35   101.14     LegendNANA
11:00 16.4 13.0 81 23 29   101.19     LegendNANA
12:00 17.1 13.3 78 24 26   101.20     LegendNANA
13:00 17.9 13.4 75 24 27   101.20     LegendNANA
14:00 18.7 13.7 73 23 22   101.25     LegendNANA
15:00 18.7 13.9 74 24 20   101.28     LegendNANA
16:00 18.7 14.3 76 24 16   101.33     LegendNANA
17:00 18.4 14.6 78 26 9   101.41     LegendNANA
18:00 18.4 12.2 67 25 4   101.44     LegendNANA
19:00 14.7 11.4 81 21 5   101.49     LegendNANA
20:00 14.7 10.9 78 16 4   101.58     LegendNANA
21:00 15.1 11.1 77 35 2   101.64     LegendNANA
22:00 16.3 13.8 85 4 10   101.68     LegendNANA
23:00 15.8 13.5 86 4 14   101.69     LegendNANA

Notes on Data Quality.

Legend

  • E = Estimated
  • M = Missing
  • NA = Not Available
  • ‡ = Partner data that is not subject to review by the National Climate Archives
Date modified: